Location: Beutels
(47.8767°N, 9.8584°E)
Time: 20:04:48
(UTC+00:00)

SPOT 5 - Pass Details

Date: 19 May 2025
Orbit: 620 x 803 km, 98.0° (Epoch: 20 June)

Event Time Altitude Azimuth Distance (km) Brightness Sun altitude
Exits shadow 19:45:20 - 174° (S) 2,909 5.6 -7.3°
Reaches altitude 10° 19:47:32 10° 178° (S) 2,005 4.8 -7.6°
Maximum altitude 19:51:49 60° 259° (W) 717 3.1 -8.1°
Drops below altitude 10° 19:56:05 10° 339° (NNW) 1,999 6.3 -8.6°
Sets 19:58:19 0° 344° (NNW) 2,914 7.2 -8.9°
